Regional Weather Roundup
Issued by NWS

Home | Current Version | Previous Version | Graphics & Text | Print | Product List | Glossary On
Versions: 1 2 3 4 5 6 7 8 9 10 11 12 13 14 15 16 17 18 19 20 21 22 23 24 25 26 27
000
ASUS45 KSLC 221410
RWRUT

UTAH REGIONAL WEATHER ROUNDUP
NATIONAL WEATHER SERVICE SALT LAKE CITY UT
800 AM MDT SAT JUL 22 2017

UTZ001>011-023>025-221500-

NORTHERN UTAH

CITY           SKY/WX    TMP DP  RH WIND       PRES   REMARKS
BRIGHAM CITY   SUNNY     65  38  37 CALM      30.14R
HILL AFB       SUNNY     69  45  41 E15       30.16R
LOGAN          SUNNY     61  44  53 CALM      30.18R
OGDEN          SUNNY     71  46  40 CALM      30.13R
SALT LAKE CITY MOSUNNY   78  54  43 S10       30.11R
TOOELE VALLEY  SUNNY     73  52  46 SE3       30.12R
WENDOVER       SUNNY     77  34  21 NW3       30.12R
HEBER CITY     SUNNY     63  50  63 CALM      30.25R
WEST JORDAN    SUNNY     76  58  53 SE14      30.15R

$$

UTZ011>015-024>027-221500-

CENTRAL/NORTHEAST UTAH

CITY           SKY/WX    TMP DP  RH WIND       PRES   REMARKS
PROVO AIRPORT  SUNNY     70  54  56 CALM      30.16R
MOAB/CANYONLAN MOSUNNY   65  62  90 CALM      30.16R
DELTA          SUNNY     72  52  49 NE7       30.15R
PRICE          SUNNY     64  55  72 CALM      30.25R
ROOSEVELT      SUNNY     63  52  67 CALM      30.26R
VERNAL         SUNNY     67  52  58 CALM      30.24R

$$

UTZ013>016-019>022-027-221500-

SOUTHERN UTAH

CITY           SKY/WX    TMP DP  RH WIND       PRES   REMARKS
BRYCE CANYON   SUNNY     58  53  84 NW5       30.38R
CEDAR CITY     MOSUNNY   72  50  45 SE6       30.21R
MILFORD        SUNNY     73  52  47 S7        30.16R
ST GEORGE      SUNNY     85  56  37 E3        30.01
HANKSVILLE     MOSUNNY   70  55  60 CALM      30.19R
BLANDING       MOSUNNY   65  58  77 E3        30.29R

$$

REGIONAL REPORTS     COLORADO/ARIZONA

CITY           SKY/WX    TMP DP  RH WIND       PRES   REMARKS
CRAIG, CO      CLOUDY    56  53  90 CALM      30.31R
GRAND JUNCTION SUNNY     69  62  78 CALM      30.20R
RIFLE, CO      CLOUDY    64  56  75 CALM      30.27R
MONTROSE, CO   CLOUDY    63  58  83 E6        30.29R
CORTEZ, CO     CLOUDY    60  56  86 CALM      30.22R
COLORADO CITY    N/A     72  59  64 SE3       30.19R
PAGE, AZ       SUNNY     78  57  48 CALM      30.12R
GRAND CANYON   SUNNY     63  55  75 CALM      30.29R
KINGMAN, AZ    MOSUNNY   83  56  39 CALM      30.04R
FLAGSTAFF, AZ  SUNNY     61  57  87 CALM      30.30S

$$

REGIONAL REPORTS    NEVADA/IDAHO/WYOMING

CITY           SKY/WX    TMP DP  RH WIND       PRES   REMARKS
LAS VEGAS, NV  PTSUNNY   89  47  23 CALM      29.92R
ELY, NY        SUNNY     60  41  49 SE5       30.28R
ELKO, NV       MOSUNNY   58  35  42 CALM      30.21R
POCATELLO, ID  SUNNY     69  35  28 SW6       30.20R
BURLEY, ID     SUNNY     60  47  61 CALM      30.17R
FORT BRIDGER,    N/A     66  36  32 W3        30.37R
EVANSTON, WY   SUNNY     59  44  57 CALM      30.35R
ROCK SPRINGS,  SUNNY     60  50  69 SE3       30.33R
KEMMERER, WY     N/A     55  36  47 N9        30.36S

$$




USA.gov is the U.S. government's official web portal to all federal, state and local government web resources and services.